Printer-friendly version

IAU Minor Planet Center

Minor Planet Center

MPEC 2006-J23 : 2006 JU

The following Minor Planet Electronic Circular may be linked-to from your own Web pages, but must not otherwise be redistributed electronically.


Read MPEC 2006-J22 Read MPEC 2006-J24


M.P.E.C. 2006-J23                                Issued 2006 May 4, 13:38 UT

     The Minor Planet Electronic Circulars contain information on unusual
         minor planets and routine data on comets.  They are published
   on behalf of Commission 20 of the International Astronomical Union by the
          Minor Planet Center, Smithsonian Astrophysical Observatory,
                          Cambridge, MA 02138, U.S.A.

                  Supported in part by the Brinson Foundation
                  Supported in part by the TABASGO Foundation
             Prepared using the Tamkin Foundation Computer Network

                              MPC@CFA.HARVARD.EDU
          URL http://cfa-www.harvard.edu/iau/mpc.html  ISSN 1523-6714

                                    2006 JU

Observations:
     K06J00U  C2006 05 02.31021 14 39 36.75 -13 28 10.7          19.3 V EJ023G96
     K06J00U  C2006 05 02.31476 14 39 36.43 -13 28 07.0          19.3 V EJ023G96
     K06J00U  C2006 05 02.31934 14 39 36.14 -13 28 03.2          19.2 V EJ023G96
     K06J00U  C2006 05 02.32377 14 39 35.85 -13 27 59.5          19.3 V EJ023G96
     K06J00U* C2006 05 03.30204 14 38 37.51 -13 14 19.5          19.2 V EJ023G96
     K06J00U  C2006 05 03.30506 14 38 37.30 -13 14 17.0          19.5 V EJ023G96
     K06J00U  C2006 05 03.30804 14 38 37.12 -13 14 14.2          19.4 V EJ023G96
     K06J00U  C2006 05 03.31099 14 38 36.89 -13 14 12.0          19.2 V EJ023G96
     K06J00U  C2006 05 03.89517 14 38 01.87 -13 05 56.1                 EJ023246
     K06J00U  C2006 05 03.89853 14 38 01.64 -13 05 52.6                 EJ023246
     K06J00U  C2006 05 03.89920 14 38 01.64 -13 05 52.6                 EJ023246
     K06J00U  C2006 05 03.90037 14 38 01.52 -13 05 50.5                 EJ023246
     K06J00U  C2006 05 03.90091 14 38 01.48 -13 05 49.0                 EJ023246
     K06J00U  C2006 05 03.90220 14 38 01.35 -13 05 49.0                 EJ023246
     K06J00U  C2006 05 04.27352 14 37 38.52 -13 00 30.1          19.3 V EJ023G96
     K06J00U  C2006 05 04.27987 14 37 38.11 -13 00 24.4          19.4 V EJ023G96
     K06J00U  C2006 05 04.28615 14 37 37.69 -13 00 18.6          19.3 V EJ023G96
     K06J00U  C2006 05 04.29265 14 37 37.24 -13 00 13.7          19.2 V EJ023G96

Observer details:
246 Klet Observatory-KLENOT.  Observers M. Tichy, M. Kocer, J. Ticha,
    M. Kiriakov.  Measurer M. Tichy.  1.06-m KLENOT Telescope + CCD.
G96 Mt. Lemmon Survey.  Observers E. J. Christensen, E. C. Beshore.  Measurers
    E. C. Beshore, E. J. Christensen, G. J. Garradd, A. R. Gibbs, A. D. Grauer,
    R. E. Hill, R. A. Kowalski, S. M. Larson, R. H. McNaught.  1.5-m reflector
    + CCD.

Orbital elements:
2006 JU                                                  Earth MOID = 0.1728 AU
Epoch 2006 Mar. 6.0 TT = JDT 2453800.5                  MPC
M 315.31460              (2000.0)            P               Q
n   0.26905290     Peri.   90.14609     +0.56579063     +0.82237422
a   2.3763528      Node   214.53155     -0.79227744     +0.52210565
e   0.5179570      Incl.    6.06032     -0.22842379     +0.22606710
P   3.66           H   19.1           G   0.15           U   9
Residuals in seconds of arc
060502 G96  0.2+  0.0     060503 G96  0.2-  0.3-    060503 246  0.8+  2.3+
060502 G96  0.2-  0.0     060503 G96  0.7-  0.6-    060503 246  0.1+  1.2+
060502 G96  0.1-  0.1-    060503 246  1.0+  0.1+    060504 G96  0.9-  1.1-
060502 G96  0.2-  0.0     060503 246  0.8+  0.8+    060504 G96  0.7-  0.9-
060503 G96  0.2-  0.6-    060503 246  1.5+  0.2+    060504 G96  0.7-  0.5-
060503 G96  0.4-  0.6-    060503 246  0.8+  1.3+    060504 G96  1.0-  1.2-

Ephemeris:
2006 JU                  a,e,i = 2.38, 0.52, 6                   q = 1.1455
Date    TT    R. A. (2000) Decl.     Delta      r     Elong.  Phase     V
2006 05 05    14 36.89   -12 49.8    0.609    1.617   175.8     2.6    19.3
2006 05 15    14 26.12   -10 14.6    0.555    1.550   163.1    10.9    19.5
2006 05 25    14 15.93   -07 32.0    0.519    1.486   150.2    19.8    19.5
2006 06 04    14 08.60   -05 02.9    0.497    1.423   138.0    28.5    19.6
2006 06 14    14 05.93   -03 04.2    0.485    1.364   127.1    36.4    19.7
2006 06 24    14 08.83   -01 44.1    0.477    1.309   117.8    43.4    19.8
2006 07 04    14 17.71   -01 04.5    0.471    1.260   110.2    49.2    19.8
2006 07 14    14 32.56   -01 01.9    0.464    1.218   104.4    54.0    19.8
2006 07 24    14 53.27   -01 31.7    0.456    1.184   100.1    57.6    19.8
2006 08 03    15 19.95   -02 29.5    0.446    1.161    97.5    60.1    19.8
2006 08 13    15 52.62   -03 49.3    0.437    1.148    96.5    61.3    19.8
2006 08 23    16 31.22   -05 24.2    0.431    1.146    97.0    61.1    19.7
2006 09 02    17 15.32   -07 03.6    0.432    1.157    98.8    59.5    19.7
2006 09 12    18 03.49   -08 32.2    0.444    1.178   101.5    56.9    19.7
2006 09 22    18 53.33   -09 35.3    0.471    1.210   104.3    53.5    19.8
2006 10 02    19 42.15   -10 02.7    0.514    1.250   106.7    50.1    20.0
2006 10 12    20 27.65   -09 52.9    0.575    1.298   108.1    47.0    20.2
2006 10 22    21 08.68   -09 11.5    0.653    1.352   108.3    44.4    20.5
2006 11 01    21 45.19   -08 06.1    0.748    1.410   107.4    42.2    20.9
2006 11 11    22 17.61   -06 44.0    0.857    1.472   105.4    40.4    21.2
2006 11 21    22 46.67   -05 10.8    0.979    1.536   102.7    38.9    21.5
2006 12 01    23 13.07   -03 30.3    1.114    1.602    99.3    37.4    21.9

Kyle E. Smalley              (C) Copyright 2006 MPC           M.P.E.C. 2006-J23

Read MPEC 2006-J22 Read MPEC 2006-J24


Our Web policy. Index to the CBAT/MPC/ICQ pages.


Valid HTML 4.01!